• In Germany
  • List of Countries
  • For 7 days
  • Water Temperature
  • Satellite Maps
  • Weather Map
  • Weather Widgets
  • user-avatar
    Login

    Hourly Weather New Braunfels

    Today, 25 November, Saturday

    Time Temperature Precipitation Wind Pressure Humidity
    00:00 +13°C° 0 mm 3 mps 738 mmHg 63%
    01:00 +13°C° 0 mm 3 mps 737 mmHg 67%
    02:00 +13°C° 0 mm 3 mps 737 mmHg 71%
    03:00 +13°C° 0 mm 3 mps 737 mmHg 73%
    04:00 +12°C° 0 mm 3 mps 737 mmHg 76%
    05:00 +13°C° 0 mm 2 mps 737 mmHg 78%
    06:00 +14°C° 0 mm 2 mps 738 mmHg 73%
    07:00 +16°C° 0 mm 2 mps 738 mmHg 69%
    08:00 +17°C° 0 mm 2 mps 739 mmHg 65%
    09:00 +19°C° 0 mm 2 mps 739 mmHg 58%
    10:00 +21°C° 0 mm 2 mps 739 mmHg 51%
    11:00 +24°C° 0 mm 2 mps 740 mmHg 45%
    12:00 +25°C° 0 mm 2 mps 740 mmHg 42%
    13:00 +26°C° 0 mm 1 mps 739 mmHg 40%
    14:00 +27°C° 0 mm 1 mps 739 mmHg 38%
    15:00 +25°C° 0 mm 2 mps 740 mmHg 43%
    16:00 +23°C° 0 mm 2 mps 740 mmHg 49%
    17:00 +21°C° 0 mm 3 mps 740 mmHg 54%
    18:00 +20°C° 0 mm 3 mps 741 mmHg 57%
    19:00 +19°C° 0 mm 4 mps 742 mmHg 61%
    20:00 +19°C° 0 mm 5 mps 743 mmHg 64%
    21:00 +17°C° 0 mm 5 mps 743 mmHg 67%
    22:00 +17°C° 0 mm 5 mps 744 mmHg 70%
    23:00 +18°C° 0 mm 4 mps 744 mmHg 73%

    Tomorrow, 26 November, Sunday

    Time Temperature Precipitation Wind Pressure Humidity
    00:00 +17°C° 0 mm 4 mps 745 mmHg 74%
    01:00 +17°C° 0 mm 4 mps 745 mmHg 75%
    02:00 +15°C° 0 mm 4 mps 745 mmHg 76%
    03:00 +15°C° 0 mm 4 mps 745 mmHg 77%
    04:00 +14°C° 0 mm 4 mps 745 mmHg 78%
    05:00 +14°C° 0 mm 4 mps 746 mmHg 78%
    06:00 +14°C° 0 mm 4 mps 746 mmHg 75%
    07:00 +15°C° 0 mm 4 mps 747 mmHg 71%
    08:00 +17°C° 0 mm 4 mps 748 mmHg 68%
    09:00 +18°C° 0 mm 4 mps 747 mmHg 63%
    10:00 +20°C° 0 mm 3 mps 747 mmHg 58%
    11:00 +22°C° 0 mm 3 mps 747 mmHg 53%
    12:00 +23°C° 0 mm 2 mps 747 mmHg 52%
    13:00 +24°C° 0 mm 2 mps 746 mmHg 50%
    14:00 +25°C° 0 mm 2 mps 745 mmHg 49%
    15:00 +23°C° 0 mm 2 mps 745 mmHg 53%
    16:00 +21°C° 0 mm 2 mps 745 mmHg 57%
    17:00 +19°C° 0 mm 2 mps 745 mmHg 62%
    18:00 +19°C° 0 mm 2 mps 745 mmHg 65%
    19:00 +18°C° 0 mm 2 mps 745 mmHg 67%
    20:00 +17°C° 0 mm 2 mps 746 mmHg 70%
    21:00 +16°C° 0 mm 2 mps 745 mmHg 72%
    22:00 +16°C° 0 mm 1 mps 745 mmHg 74%
    23:00 +15°C° 0 mm 1 mps 745 mmHg 76%

    Day after tomorrow, 27 November, Monday

    Time Temperature Precipitation Wind Pressure Humidity
    00:00 +15°C° 0 mm 1 mps 745 mmHg 78%
    01:00 +15°C° 0 mm 1 mps 745 mmHg 80%
    02:00 +14°C° 0 mm 1 mps 744 mmHg 81%
    03:00 +14°C° 0 mm 1 mps 744 mmHg 82%
    04:00 +14°C° 0 mm 1 mps 744 mmHg 83%
    05:00 +14°C° 0 mm 1 mps 744 mmHg 85%
    06:00 +15°C° 0 mm 1 mps 744 mmHg 81%
    07:00 +16°C° 0 mm 2 mps 745 mmHg 78%
    08:00 +17°C° 0 mm 2 mps 745 mmHg 75%
    09:00 +19°C° 0 mm 3 mps 745 mmHg 70%
    10:00 +21°C° 0 mm 3 mps 744 mmHg 64%
    11:00 +23°C° 0 mm 4 mps 744 mmHg 59%
    12:00 +23°C° 0 mm 4 mps 743 mmHg 56%
    13:00 +25°C° 0 mm 4 mps 742 mmHg 54%
    14:00 +25°C° 0 mm 4 mps 741 mmHg 51%
    15:00 +23°C° 0 mm 4 mps 741 mmHg 56%
    16:00 +21°C° 0 mm 3 mps 741 mmHg 60%
    17:00 +20°C° 0 mm 3 mps 741 mmHg 65%
    18:00 +19°C° 0 mm 4 mps 741 mmHg 67%
    19:00 +19°C° 0 mm 4 mps 741 mmHg 69%
    20:00 +18°C° 0 mm 4 mps 742 mmHg 72%
    21:00 +17°C° 0 mm 4 mps 741 mmHg 75%
    22:00 +17°C° 0 mm 4 mps 741 mmHg 79%
    23:00 +15°C° 0 mm 4 mps 741 mmHg 83%

    28 November, Tuesday

    Time Temperature Precipitation Wind Pressure Humidity
    00:00 +15°C° 0 mm 4 mps 741 mmHg 85%
    01:00 +15°C° 0 mm 4 mps 740 mmHg 88%
    02:00 +14°C° 0 mm 4 mps 740 mmHg 90%
    03:00 +14°C° 0 mm 3 mps 740 mmHg 91%
    04:00 +14°C° 0 mm 3 mps 739 mmHg 92%
    05:00 +14°C° 0 mm 3 mps 739 mmHg 93%
    06:00 +16°C° 0 mm 3 mps 740 mmHg 90%
    07:00 +18°C° 0 mm 4 mps 740 mmHg 86%
    08:00 +19°C° 0 mm 5 mps 741 mmHg 83%
    09:00 +20°C° 0 mm 5 mps 741 mmHg 78%
    10:00 +22°C° 0 mm 5 mps 741 mmHg 73%
    11:00 +23°C° 0 mm 6 mps 741 mmHg 68%
    12:00 +25°C° 0 mm 5 mps 740 mmHg 64%
    13:00 +26°C° 0 mm 5 mps 740 mmHg 61%
    14:00 +26°C° 0 mm 5 mps 739 mmHg 58%
    15:00 +25°C° 0 mm 4 mps 739 mmHg 63%
    16:00 +24°C° 0 mm 2 mps 740 mmHg 68%
    17:00 +23°C° 0 mm 1 mps 740 mmHg 73%
    18:00 +21°C° 0.1 mm 2 mps 741 mmHg 75%
    19:00 +21°C° 0.1 mm 2 mps 742 mmHg 77%
    20:00 +21°C° 0.1 mm 3 mps 743 mmHg 79%
    21:00 +19°C° 0.1 mm 4 mps 743 mmHg 72%
    22:00 +17°C° 0.1 mm 5 mps 743 mmHg 64%
    23:00 +16°C° 0.1 mm 6 mps 743 mmHg 57%

    29 November, Wednesday

    Time Temperature Precipitation Wind Pressure Humidity
    00:00 +16°C° 0 mm 6 mps 743 mmHg 54%
    01:00 +15°C° 0 mm 6 mps 744 mmHg 51%
    02:00 +14°C° 0 mm 6 mps 744 mmHg 48%
    03:00 +13°C° 0 mm 6 mps 744 mmHg 45%
    04:00 +13°C° 0 mm 6 mps 744 mmHg 43%
    05:00 +13°C° 0 mm 6 mps 745 mmHg 41%
    06:00 +13°C° 0 mm 5 mps 745 mmHg 40%
    07:00 +13°C° 0 mm 5 mps 746 mmHg 39%
    08:00 +13°C° 0 mm 5 mps 746 mmHg 39%
    09:00 +15°C° 0 mm 5 mps 746 mmHg 37%
    10:00 +18°C° 0 mm 4 mps 746 mmHg 34%
    11:00 +19°C° 0 mm 4 mps 746 mmHg 32%
    12:00 +20°C° 0 mm 3 mps 745 mmHg 32%
    13:00 +21°C° 0 mm 2 mps 744 mmHg 31%
    14:00 +21°C° 0 mm 2 mps 744 mmHg 31%
    15:00 +20°C° 0 mm 2 mps 744 mmHg 34%
    16:00 +19°C° 0 mm 1 mps 744 mmHg 37%
    17:00 +18°C° 0 mm 1 mps 743 mmHg 41%
    18:00 +16°C° 0 mm 1 mps 744 mmHg 43%
    19:00 +15°C° 0 mm 1 mps 744 mmHg 46%
    20:00 +15°C° 0 mm 1 mps 744 mmHg 48%
    21:00 +14°C° 0 mm 1 mps 744 mmHg 50%
    22:00 +14°C° 0 mm 1 mps 744 mmHg 52%
    23:00 +14°C° 0 mm 1 mps 744 mmHg 54%

    30 November, Thursday

    Time Temperature Precipitation Wind Pressure Humidity
    00:00 +13°C° 0 mm 1 mps 743 mmHg 55%
    01:00 +13°C° 0 mm 1 mps 743 mmHg 56%
    02:00 +13°C° 0 mm 1 mps 743 mmHg 58%
    03:00 +13°C° 0 mm 1 mps 743 mmHg 59%
    04:00 +13°C° 0 mm 1 mps 743 mmHg 60%
    05:00 +13°C° 0 mm 1 mps 743 mmHg 61%
    06:00 +14°C° 0 mm 1 mps 743 mmHg 59%
    07:00 +15°C° 0 mm 1 mps 744 mmHg 57%
    08:00 +16°C° 0 mm 1 mps 744 mmHg 56%
    09:00 +18°C° 0 mm 2 mps 744 mmHg 55%
    10:00 +20°C° 0 mm 2 mps 744 mmHg 54%
    11:00 +23°C° 0 mm 2 mps 744 mmHg 54%
    12:00 +24°C° 0 mm 2 mps 744 mmHg 54%
    13:00 +24°C° 0 mm 2 mps 743 mmHg 54%
    14:00 +25°C° 0 mm 2 mps 743 mmHg 54%
    15:00 +24°C° 0 mm 2 mps 743 mmHg 59%
    16:00 +23°C° 0 mm 2 mps 743 mmHg 65%
    17:00 +20°C° 0 mm 2 mps 743 mmHg 70%
    18:00 +20°C° 0 mm 2 mps 744 mmHg 73%
    19:00 +19°C° 0 mm 2 mps 744 mmHg 76%
    20:00 +19°C° 0 mm 2 mps 744 mmHg 78%
    21:00 +19°C° 0 mm 2 mps 745 mmHg 79%
    22:00 +18°C° 0 mm 2 mps 745 mmHg 79%
    23:00 +18°C° 0 mm 2 mps 745 mmHg 79%
    Show more